| time (UTC) | temp C | wind direction | speed KPH | gust KPH | rain 1hr cm | rain 24hr cm | rain mn cm | humidity % | barometer mb |
| 20260510071355 | 15 | 259 | 0.0 | 0.0 | 0.00 | 0.03 | 0.00 | 82 | 1012.7 |
| 20260510070851 | 15 | 259 | 0.0 | 0.0 | 0.00 | 0.03 | 0.00 | 82 | 1012.8 |
| 20260510070839 | 16 | 259 | 0.0 | 0.0 | 0.00 | 0.03 | 0.00 | 82 | 1012.8 |
| 20260510065828 | 16 | 259 | 0.0 | 0.0 | 0.00 | 0.03 | 0.00 | 81 | 1012.9 |
| 20260510065310 | 16 | 259 | 0.0 | 0.0 | 0.00 | 0.03 | 0.00 | 81 | 1013.0 |
| 20260510064807 | 16 | 259 | 0.0 | 0.0 | 0.00 | 0.03 | 0.00 | 80 | 1013.1 |
| 20260510064306 | 16 | 259 | 0.0 | 0.0 | 0.00 | 0.03 | 0.00 | 80 | 1013.1 |
| 20260510063805 | 16 | 259 | 0.0 | 0.0 | 0.00 | 0.03 | 0.00 | 79 | 1013.2 |
| 20260510063741 | 16 | 259 | 0.0 | 0.0 | 0.00 | 0.03 | 0.00 | 80 | 1013.4 |
| 20260510062800 | 16 | 259 | 0.0 | 0.0 | 0.00 | 0.03 | 0.00 | 80 | 1013.4 |
| 20260510062235 | 16 | 259 | 0.0 | 0.0 | 0.00 | 0.03 | 0.00 | 80 | 1013.5 |
| 20260510061732 | 16 | 259 | 0.0 | 0.0 | 0.00 | 0.03 | 0.00 | 80 | 1013.6 |
| 20260510061213 | 16 | 259 | 0.0 | 0.0 | 0.00 | 0.03 | 0.00 | 79 | 1013.7 |
| 20260510060706 | 16 | 259 | 0.0 | 0.0 | 0.00 | 0.03 | 0.00 | 78 | 1013.6 |
| 20260510060207 | 16 | 259 | 0.0 | 1.6 | 0.00 | 0.03 | 0.00 | 79 | 1013.7 |
| 20260510055648 | 16 | 261 | 0.0 | 1.6 | 0.00 | 0.03 | 0.00 | 79 | 1013.5 |
| 20260510055147 | 16 | 261 | 0.0 | 0.0 | 0.00 | 0.03 | 0.00 | 79 | 1013.5 |
| 20260510054619 | 16 | 261 | 0.0 | 0.0 | 0.00 | 0.03 | 0.00 | 79 | 1013.4 |
| 20260510054118 | 16 | 261 | 0.0 | 0.0 | 0.00 | 0.03 | 0.00 | 79 | 1013.4 |
| 20260510053545 | 16 | 261 | 0.0 | 0.0 | 0.00 | 0.03 | 0.00 | 79 | 1013.4 |
| 20260510053046 | 16 | 261 | 0.0 | 0.0 | 0.00 | 0.03 | 0.00 | 77 | 1013.3 |
| 20260510052534 | 16 | 261 | 0.0 | 0.0 | 0.00 | 0.03 | 0.00 | 76 | 1013.2 |
| 20260510052036 | 16 | 261 | 0.0 | 0.0 | 0.00 | 0.03 | 0.00 | 76 | 1013.2 |
| 20260510051535 | 16 | 261 | 0.0 | 0.0 | 0.00 | 0.03 | 0.00 | 75 | 1013.2 |
| 20260510051524 | 16 | 261 | 0.0 | 0.0 | 0.00 | 0.03 | 0.00 | 74 | 1013.1 |
| 20260510050516 | 16 | 261 | 0.0 | 0.0 | 0.00 | 0.03 | 0.00 | 74 | 1013.1 |
| 20260510050014 | 16 | 261 | 0.0 | 0.0 | 0.00 | 0.03 | 0.00 | 74 | 1013.1 |
| 20260510045509 | 16 | 261 | 0.0 | 0.0 | 0.00 | 0.03 | 0.03 | 72 | 1013.0 |
| 20260510045010 | 17 | 261 | 0.0 | 0.0 | 0.00 | 0.03 | 0.03 | 72 | 1012.9 |
| 20260510044448 | 17 | 261 | 0.0 | 0.0 | 0.00 | 0.03 | 0.03 | 71 | 1012.8 |
| 20260510044440 | 17 | 261 | 0.0 | 0.0 | 0.00 | 0.03 | 0.03 | 69 | 1012.9 |
| 20260510043435 | 17 | 261 | 0.0 | 0.0 | 0.00 | 0.03 | 0.03 | 70 | 1012.8 |
| 20260510042935 | 17 | 261 | 0.0 | 0.0 | 0.00 | 0.03 | 0.03 | 70 | 1012.8 |
| 20260510042423 | 17 | 261 | 0.0 | 1.6 | 0.00 | 0.03 | 0.03 | 70 | 1012.8 |
| 20260510042410 | 16 | 261 | 0.0 | 1.6 | 0.00 | 0.03 | 0.03 | 69 | 1012.8 |
| 20260510041422 | 16 | 261 | 0.0 | 0.0 | 0.00 | 0.03 | 0.03 | 69 | 1012.8 |
| 20260510040918 | 16 | 261 | 0.0 | 0.0 | 0.00 | 0.03 | 0.03 | 70 | 1012.8 |
| 20260510040417 | 16 | 261 | 0.0 | 1.6 | 0.00 | 0.03 | 0.03 | 70 | 1012.8 |
| 20260510035849 | 16 | 261 | 0.0 | 1.6 | 0.00 | 0.03 | 0.03 | 71 | 1012.8 |
| 20260510035326 | 16 | 211 | 0.0 | 0.0 | 0.00 | 0.03 | 0.03 | 73 | 1012.8 |
| 20260510035251 | 16 | 211 | 0.0 | 0.0 | 0.00 | 0.03 | 0.03 | 73 | 1012.7 |
| 20260510034755 | 16 | 211 | 0.0 | 0.0 | 0.00 | 0.03 | 0.03 | 69 | 1012.6 |
| 20260510034258 | 16 | 211 | 0.0 | 0.0 | 0.00 | 0.03 | 0.03 | 69 | 1012.3 |
| 20260510033300 | 16 | 211 | 0.0 | 0.0 | 0.00 | 0.03 | 0.03 | 70 | 1012.2 |
| 20260510032800 | 16 | 211 | 0.0 | 0.0 | 0.00 | 0.03 | 0.03 | 69 | 1011.9 |
| 20260510032235 | 16 | 211 | 0.0 | 0.0 | 0.00 | 0.03 | 0.03 | 69 | 1011.8 |
| 20260510032159 | 16 | 211 | 0.0 | 0.0 | 0.00 | 0.03 | 0.03 | 69 | 1011.8 |
| 20260510031222 | 16 | 211 | 0.0 | 0.0 | 0.00 | 0.03 | 0.03 | 69 | 1011.6 |
| 20260510030718 | 16 | 211 | 0.0 | 0.0 | 0.00 | 0.03 | 0.03 | 69 | 1011.5 |
| 20260510030217 | 16 | 211 | 0.0 | 0.0 | 0.00 | 0.03 | 0.03 | 69 | 1011.4 |
| 20260510025649 | 16 | 211 | 0.0 | 0.0 | 0.00 | 0.03 | 0.03 | 68 | 1011.5 |
| 20260510025151 | 17 | 211 | 0.0 | 0.0 | 0.00 | 0.03 | 0.03 | 68 | 1011.4 |
| 20260510024636 | 17 | 211 | 0.0 | 0.0 | 0.00 | 0.03 | 0.03 | 67 | 1011.4 |
| 20260510024118 | 17 | 211 | 0.0 | 1.6 | 0.00 | 0.03 | 0.03 | 66 | 1011.4 |
| 20260510023617 | 17 | 211 | 0.0 | 1.6 | 0.00 | 0.03 | 0.03 | 65 | 1011.4 |
| 20260510023116 | 17 | 271 | 0.0 | 0.0 | 0.00 | 0.03 | 0.03 | 61 | 1011.1 |
| 20260510022606 | 18 | 271 | 0.0 | 0.0 | 0.00 | 0.03 | 0.03 | 60 | 1011.0 |
| 20260510022529 | 18 | 271 | 0.0 | 0.0 | 0.00 | 0.03 | 0.03 | 58 | 1010.9 |
| 20260510021519 | 18 | 271 | 0.0 | 0.0 | 0.00 | 0.03 | 0.03 | 58 | 1010.8 |
| 20260510021012 | 18 | 271 | 0.0 | 0.0 | 0.00 | 0.03 | 0.03 | 57 | 1010.7 |
| 20260510020442 | 19 | 271 | 0.0 | 0.0 | 0.00 | 0.03 | 0.03 | 57 | 1010.5 |
| 20260510015939 | 19 | 271 | 0.0 | 0.0 | 0.00 | 0.03 | 0.03 | 56 | 1010.5 |
| 20260510015433 | 20 | 271 | 0.0 | 0.0 | 0.00 | 0.03 | 0.03 | 54 | 1010.5 |
| 20260510014931 | 20 | 271 | 0.0 | 0.0 | 0.00 | 0.03 | 0.03 | 54 | 1010.3 |
| 20260510014430 | 20 | 271 | 0.0 | 0.0 | 0.00 | 0.03 | 0.03 | 54 | 1010.2 |
| 20260510013925 | 20 | 271 | 0.0 | 0.0 | 0.00 | 0.03 | 0.03 | 54 | 1010.1 |
| 20260510013427 | 20 | 271 | 0.0 | 0.0 | 0.00 | 0.03 | 0.03 | 53 | 1010.0 |
| 20260510012906 | 21 | 271 | 0.0 | 0.0 | 0.00 | 0.03 | 0.03 | 50 | 1010.1 |
| 20260510012404 | 21 | 271 | 0.0 | 0.0 | 0.00 | 0.03 | 0.03 | 49 | 1010.0 |
| 20260510011906 | 22 | 271 | 0.0 | 0.0 | 0.00 | 0.05 | 0.03 | 48 | 1009.8 |
| 20260510011351 | 22 | 271 | 0.0 | 0.0 | 0.00 | 0.08 | 0.03 | 47 | 1009.7 |
| 20260510011336 | 23 | 271 | 0.0 | 0.0 | 0.00 | 0.10 | 0.03 | 46 | 1009.8 |
| 20260510010831 | 24 | 271 | 0.0 | 0.0 | 0.00 | 0.10 | 0.03 | 45 | 1009.8 |
| 20260510005844 | 25 | 271 | 0.0 | 0.0 | 0.00 | 0.10 | 0.03 | 43 | 1009.7 |
| 20260510005328 | 25 | 271 | 0.0 | 0.0 | 0.00 | 0.13 | 0.03 | 42 | 1009.7 |
| 20260510005237 | 26 | 271 | 0.0 | 1.6 | 0.00 | 0.13 | 0.03 | 40 | 1009.7 |
| 20260510004236 | 27 | 271 | 0.0 | 0.0 | 0.00 | 0.15 | 0.03 | 41 | 1009.7 |
| 20260510003720 | 27 | 271 | 0.0 | 0.0 | 0.00 | 0.18 | 0.03 | 41 | 1009.6 |
| 20260510003157 | 28 | 271 | 0.0 | 1.6 | 0.00 | 0.18 | 0.03 | 42 | 1009.6 |
| 20260510002638 | 28 | 271 | 0.0 | 1.6 | 0.00 | 0.18 | 0.03 | 43 | 1009.6 |
| 20260510002139 | 28 | 271 | 0.0 | 1.6 | 0.00 | 0.18 | 0.03 | 41 | 1009.6 |
| 20260510001615 | 28 | 271 | 0.0 | 1.6 | 0.00 | 0.18 | 0.03 | 40 | 1009.6 |
| 20260510001111 | 28 | 259 | 0.0 | 4.8 | 0.00 | 0.18 | 0.03 | 40 | 1009.6 |
| 20260510000612 | 28 | 99 | 0.0 | 4.8 | 0.00 | 0.18 | 0.03 | 39 | 1009.7 |
| 20260510000108 | 28 | 198 | 0.0 | 0.0 | 0.00 | 0.18 | 0.03 | 41 | 1009.7 |
| 20260509235611 | 28 | 198 | 0.0 | 0.0 | 0.00 | 0.18 | 0.03 | 40 | 1009.7 |
| 20260509235051 | 28 | 197 | 0.0 | 0.0 | 0.00 | 0.18 | 0.03 | 41 | 1009.7 |
| 20260509234536 | 29 | 175 | 0.0 | 0.0 | 0.00 | 0.18 | 0.03 | 41 | 1009.8 |
| 20260509234036 | 29 | 175 | 0.0 | 0.0 | 0.00 | 0.18 | 0.03 | 40 | 1009.8 |
| 20260509233535 | 29 | 175 | 0.0 | 0.0 | 0.00 | 0.18 | 0.03 | 43 | 1009.8 |
| 20260509233030 | 29 | 175 | 0.0 | 0.0 | 0.00 | 0.18 | 0.03 | 43 | 1009.8 |
| 20260509232526 | 30 | 175 | 0.0 | 0.0 | 0.00 | 0.18 | 0.03 | 40 | 1009.9 |
| 20260509232011 | 30 | 198 | 0.0 | 0.0 | 0.00 | 0.18 | 0.03 | 41 | 1009.9 |
| 20260509231449 | 30 | 199 | 0.0 | 1.6 | 0.00 | 0.18 | 0.03 | 38 | 1009.9 |
| 20260509230931 | 30 | 210 | 0.0 | 3.2 | 0.00 | 0.18 | 0.03 | 40 | 1009.8 |
| 20260509230851 | 30 | 254 | 0.0 | 6.4 | 0.00 | 0.18 | 0.03 | 41 | 1009.8 |
| 20260509225846 | 29 | 157 | 0.0 | 6.4 | 0.00 | 0.18 | 0.03 | 41 | 1009.8 |
| 20260509225324 | 29 | 155 | 1.6 | 6.4 | 0.00 | 0.18 | 0.03 | 41 | 1009.7 |
| 20260509224759 | 30 | 82 | 0.0 | 6.4 | 0.00 | 0.18 | 0.03 | 36 | 1009.8 |
| 20260509224243 | 30 | 212 | 0.0 | 1.6 | 0.00 | 0.18 | 0.03 | 37 | 1009.8 |
| 20260509223740 | 30 | 212 | 0.0 | 3.2 | 0.00 | 0.18 | 0.03 | 38 | 1009.9 |
| 20260509223242 | 30 | 232 | 1.6 | 6.4 | 0.00 | 0.18 | 0.03 | 40 | 1009.9 |
| 20260509222739 | 30 | 269 | 1.6 | 6.4 | 0.00 | 0.18 | 0.03 | 44 | 1009.9 |
| 20260509222241 | 30 | 191 | 0.0 | 4.8 | 0.00 | 0.18 | 0.03 | 40 | 1009.8 |
| 20260509221715 | 30 | 191 | 0.0 | 4.8 | 0.00 | 0.18 | 0.03 | 41 | 1009.8 |
| 20260509221152 | 30 | 201 | 0.0 | 3.2 | 0.00 | 0.18 | 0.03 | 41 | 1009.9 |
| 20260509220623 | 29 | 198 | 0.0 | 4.8 | 0.00 | 0.18 | 0.03 | 39 | 1009.8 |
| 20260509220123 | 29 | 213 | 0.0 | 4.8 | 0.00 | 0.18 | 0.03 | 43 | 1009.8 |
| 20260509215603 | 29 | 245 | 1.6 | 4.8 | 0.00 | 0.18 | 0.03 | 41 | 1009.9 |
| 20260509215057 | 28 | 253 | 0.0 | 3.2 | 0.00 | 0.18 | 0.03 | 43 | 1009.8 |
| 20260509215038 | 28 | 32 | 0.0 | 3.2 | 0.00 | 0.18 | 0.03 | 38 | 1009.9 |
| 20260509214028 | 29 | 206 | 0.0 | 4.8 | 0.00 | 0.18 | 0.03 | 39 | 1009.9 |
| 20260509213510 | 29 | 126 | 0.0 | 4.8 | 0.00 | 0.18 | 0.03 | 38 | 1009.9 |
| 20260509213008 | 29 | 200 | 0.0 | 1.6 | 0.00 | 0.18 | 0.03 | 44 | 1009.9 |
| 20260509212441 | 29 | 199 | 0.0 | 1.6 | 0.00 | 0.18 | 0.03 | 44 | 1009.9 |
| 20260509211924 | 29 | 139 | 0.0 | 6.4 | 0.00 | 0.18 | 0.03 | 43 | 1009.9 |
| 20260509211422 | 29 | 275 | 0.0 | 6.4 | 0.00 | 0.18 | 0.03 | 42 | 1010.0 |
| 20260509210924 | 28 | 312 | 1.6 | 6.4 | 0.00 | 0.18 | 0.03 | 40 | 1010.2 |
| 20260509210415 | 28 | 75 | 1.6 | 6.4 | 0.00 | 0.18 | 0.03 | 38 | 1010.3 |
| 20260509205851 | 29 | 212 | 0.0 | 1.6 | 0.00 | 0.18 | 0.03 | 42 | 1010.3 |
| 20260509205333 | 28 | 200 | 1.6 | 6.4 | 0.00 | 0.18 | 0.03 | 47 | 1010.3 |
| 20260509204831 | 28 | 198 | 3.2 | 6.4 | 0.00 | 0.18 | 0.03 | 47 | 1010.4 |
| 20260509204327 | 28 | 257 | 3.2 | 8.0 | 0.00 | 0.18 | 0.03 | 41 | 1010.4 |
| 20260509203806 | 28 | 256 | 3.2 | 8.0 | 0.00 | 0.18 | 0.03 | 45 | 1010.5 |
| 20260509203240 | 28 | 255 | 3.2 | 11.3 | 0.00 | 0.18 | 0.03 | 39 | 1010.4 |
| 20260509203221 | 28 | 255 | 3.2 | 11.3 | 0.00 | 0.18 | 0.03 | 38 | 1010.4 |
| 20260509202228 | 28 | 255 | 1.6 | 8.0 | 0.00 | 0.18 | 0.03 | 39 | 1010.4 |
| 20260509201711 | 28 | 265 | 1.6 | 8.0 | 0.00 | 0.18 | 0.03 | 40 | 1010.4 |
| 20260509201150 | 28 | 161 | 1.6 | 8.0 | 0.00 | 0.18 | 0.03 | 38 | 1010.5 |
| 20260509200648 | 28 | 189 | 1.6 | 6.4 | 0.00 | 0.18 | 0.03 | 43 | 1010.6 |
| 20260509200121 | 27 | 189 | 3.2 | 9.7 | 0.00 | 0.18 | 0.03 | 42 | 1010.6 |
| 20260509195625 | 28 | 33 | 1.6 | 9.7 | 0.00 | 0.18 | 0.03 | 40 | 1010.5 |
| 20260509195054 | 28 | 19 | 1.6 | 6.4 | 0.00 | 0.18 | 0.03 | 39 | 1010.5 |
| 20260509194529 | 28 | 45 | 0.0 | 6.4 | 0.00 | 0.18 | 0.03 | 44 | 1010.5 |
| 20260509194002 | 28 | 179 | 1.6 | 8.0 | 0.00 | 0.18 | 0.03 | 46 | 1010.6 |
| 20260509193438 | 28 | 65 | 1.6 | 8.0 | 0.00 | 0.18 | 0.03 | 40 | 1010.6 |
| 20260509192913 | 29 | 37 | 0.0 | 4.8 | 0.00 | 0.18 | 0.03 | 45 | 1010.7 |
| 20260509192405 | 29 | 193 | 0.0 | 4.8 | 0.00 | 0.18 | 0.03 | 41 | 1010.7 |
| 20260509191905 | 29 | 114 | 0.0 | 3.2 | 0.00 | 0.18 | 0.03 | 43 | 1010.8 |
| 20260509191339 | 28 | 196 | 1.6 | 6.4 | 0.00 | 0.18 | 0.03 | 45 | 1010.9 |
| 20260509190834 | 28 | 211 | 3.2 | 6.4 | 0.00 | 0.18 | 0.03 | 46 | 1010.9 |
| 20260509190311 | 28 | 207 | 1.6 | 6.4 | 0.00 | 0.18 | 0.03 | 44 | 1010.9 |
| 20260509190225 | 28 | 248 | 1.6 | 4.8 | 0.00 | 0.18 | 0.03 | 44 | 1011.0 |
| 20260509185238 | 28 | 111 | 1.6 | 4.8 | 0.00 | 0.18 | 0.03 | 42 | 1011.1 |
| 20260509184713 | 28 | 90 | 1.6 | 6.4 | 0.00 | 0.18 | 0.03 | 43 | 1011.0 |
| 20260509184628 | 27 | 218 | 1.6 | 6.4 | 0.00 | 0.18 | 0.03 | 45 | 1011.1 |
| 20260509183630 | 27 | 252 | 1.6 | 6.4 | 0.00 | 0.18 | 0.03 | 42 | 1011.1 |
| 20260509183127 | 27 | 244 | 4.8 | 9.7 | 0.00 | 0.18 | 0.03 | 44 | 1011.2 |
| 20260509183113 | 27 | 247 | 3.2 | 9.7 | 0.00 | 0.18 | 0.03 | 44 | 1011.1 |
| 20260509182058 | 28 | 240 | 1.6 | 6.4 | 0.00 | 0.18 | 0.03 | 41 | 1011.1 |
| 20260509181532 | 27 | 214 | 1.6 | 6.4 | 0.00 | 0.18 | 0.03 | 50 | 1011.2 |
| 20260509181515 | 27 | 188 | 3.2 | 9.7 | 0.00 | 0.18 | 0.03 | 50 | 1011.2 |
| 20260509180526 | 27 | 258 | 1.6 | 9.7 | 0.00 | 0.18 | 0.03 | 45 | 1011.3 |
| 20260509180455 | 27 | 170 | 1.6 | 9.7 | 0.00 | 0.18 | 0.03 | 55 | 1011.4 |
| 20260509175454 | 27 | 236 | 3.2 | 9.7 | 0.00 | 0.18 | 0.03 | 48 | 1011.4 |
| 20260509175446 | 27 | 230 | 3.2 | 11.3 | 0.00 | 0.18 | 0.03 | 50 | 1011.4 |
| 20260509174425 | 27 | 258 | 1.6 | 11.3 | 0.00 | 0.18 | 0.03 | 48 | 1011.4 |
| 20260509174350 | 28 | 261 | 1.6 | 6.4 | 0.00 | 0.18 | 0.03 | 47 | 1011.5 |
| 20260509173407 | 28 | 196 | 1.6 | 6.4 | 0.00 | 0.18 | 0.03 | 51 | 1011.6 |
| 20260509172900 | 28 | 233 | 1.6 | 4.8 | 0.00 | 0.18 | 0.03 | 47 | 1011.8 |
| 20260509172355 | 28 | 188 | 0.0 | 4.8 | 0.00 | 0.18 | 0.03 | 51 | 1011.8 |
| 20260509171854 | 28 | 186 | 0.0 | 3.2 | 0.00 | 0.18 | 0.03 | 58 | 1011.8 |
| 20260509171337 | 28 | 245 | 1.6 | 4.8 | 0.00 | 0.18 | 0.03 | 57 | 1011.8 |
| 20260509170832 | 28 | 221 | 0.0 | 3.2 | 0.00 | 0.18 | 0.03 | 56 | 1011.9 |
| 20260509170317 | 27 | 75 | 0.0 | 3.2 | 0.00 | 0.18 | 0.03 | 55 | 1011.6 |
| 20260509165815 | 27 | 104 | 0.0 | 3.2 | 0.00 | 0.18 | 0.03 | 58 | 1011.6 |
| 20260509165757 | 27 | 134 | 1.6 | 4.8 | 0.00 | 0.18 | 0.03 | 58 | 1011.6 |
| 20260509164809 | 27 | 106 | 1.6 | 4.8 | 0.00 | 0.18 | 0.03 | 62 | 1011.6 |
| 20260509164242 | 27 | 11 | 1.6 | 4.8 | 0.00 | 0.18 | 0.03 | 58 | 1011.5 |
| 20260509164213 | 27 | 181 | 1.6 | 9.7 | 0.00 | 0.18 | 0.03 | 63 | 1011.5 |
| 20260509163206 | 27 | 244 | 1.6 | 9.7 | 0.00 | 0.18 | 0.03 | 57 | 1011.6 |
| 20260509162709 | 27 | 188 | 0.0 | 1.6 | 0.00 | 0.18 | 0.03 | 64 | 1011.8 |
| 20260509162635 | 27 | 195 | 1.6 | 8.0 | 0.00 | 0.18 | 0.03 | 68 | 1011.8 |
| 20260509161622 | 26 | 193 | 3.2 | 8.0 | 0.00 | 0.18 | 0.03 | 63 | 1011.8 |
| 20260509161124 | 27 | 248 | 0.0 | 6.4 | 0.00 | 0.18 | 0.03 | 62 | 1011.9 |
| 20260509160621 | 27 | 206 | 0.0 | 1.6 | 0.00 | 0.18 | 0.03 | 66 | 1012.0 |
| 20260509160119 | 26 | 157 | 0.0 | 1.6 | 0.00 | 0.18 | 0.03 | 68 | 1011.9 |
| 20260509155553 | 26 | 148 | 0.0 | 4.8 | 0.00 | 0.18 | 0.03 | 67 | 1011.9 |
| 20260509155024 | 27 | 71 | 0.0 | 4.8 | 0.00 | 0.18 | 0.03 | 61 | 1011.8 |
| 20260509154516 | 27 | 163 | 0.0 | 0.0 | 0.00 | 0.18 | 0.03 | 66 | 1011.8 |
| 20260509154017 | 26 | 183 | 0.0 | 3.2 | 0.00 | 0.18 | 0.03 | 65 | 1011.8 |
| 20260509153519 | 26 | 191 | 0.0 | 3.2 | 0.00 | 0.18 | 0.03 | 68 | 1011.8 |
| 20260509153001 | 26 | 152 | 0.0 | 3.2 | 0.00 | 0.18 | 0.03 | 68 | 1011.8 |
| 20260509152500 | 26 | 150 | 0.0 | 3.2 | 0.00 | 0.18 | 0.03 | 69 | 1011.9 |
| 20260509151956 | 25 | 200 | 1.6 | 4.8 | 0.00 | 0.18 | 0.03 | 70 | 1011.9 |
| 20260509151441 | 25 | 140 | 1.6 | 6.4 | 0.00 | 0.18 | 0.03 | 70 | 1011.9 |
| 20260509150911 | 25 | 243 | 1.6 | 6.4 | 0.00 | 0.18 | 0.03 | 67 | 1011.8 |
| 20260509150409 | 25 | 258 | 0.0 | 3.2 | 0.00 | 0.18 | 0.03 | 67 | 1011.8 |
| 20260509145842 | 25 | 208 | 0.0 | 1.6 | 0.00 | 0.18 | 0.03 | 71 | 1011.8 |
| 20260509145317 | 25 | 195 | 0.0 | 4.8 | 0.00 | 0.18 | 0.03 | 70 | 1011.6 |
| 20260509145241 | 25 | 231 | 0.0 | 4.8 | 0.00 | 0.18 | 0.03 | 68 | 1011.8 |
| 20260509144257 | 24 | 205 | 0.0 | 4.8 | 0.00 | 0.18 | 0.03 | 69 | 1011.6 |
| 20260509143759 | 24 | 190 | 1.6 | 4.8 | 0.00 | 0.18 | 0.03 | 71 | 1011.8 |
| 20260509143231 | 24 | 259 | 0.0 | 4.8 | 0.00 | 0.18 | 0.03 | 66 | 1011.6 |
| 20260509143147 | 24 | 195 | 0.0 | 1.6 | 0.00 | 0.18 | 0.03 | 70 | 1011.6 |
| 20260509142138 | 24 | 179 | 0.0 | 1.6 | 0.00 | 0.18 | 0.03 | 70 | 1011.6 |
| 20260509142116 | 24 | 146 | 0.0 | 0.0 | 0.00 | 0.18 | 0.03 | 69 | 1011.5 |
| 20260509141106 | 24 | 196 | 0.0 | 0.0 | 0.00 | 0.18 | 0.03 | 71 | 1011.5 |
| 20260509141022 | 23 | 202 | 0.0 | 0.0 | 0.00 | 0.18 | 0.03 | 72 | 1011.5 |
| 20260509140037 | 23 | 191 | 0.0 | 0.0 | 0.00 | 0.18 | 0.03 | 74 | 1011.5 |
| 20260509135533 | 22 | 191 | 0.0 | 0.0 | 0.00 | 0.18 | 0.03 | 75 | 1011.4 |
| 20260509135031 | 22 | 181 | 0.0 | 0.0 | 0.00 | 0.18 | 0.03 | 76 | 1011.4 |
| 20260509134504 | 22 | 186 | 0.0 | 0.0 | 0.00 | 0.18 | 0.03 | 76 | 1011.3 |
| 20260509134431 | 21 | 176 | 0.0 | 0.0 | 0.00 | 0.18 | 0.03 | 79 | 1011.2 |
| 20260509133415 | 21 | 204 | 0.0 | 0.0 | 0.00 | 0.18 | 0.03 | 81 | 1011.0 |
| 20260509132912 | 20 | 206 | 0.0 | 0.0 | 0.00 | 0.18 | 0.03 | 81 | 1011.0 |
| 20260509132345 | 20 | 173 | 0.0 | 0.0 | 0.00 | 0.18 | 0.03 | 86 | 1011.0 |
| 20260509131843 | 19 | 173 | 0.0 | 0.0 | 0.00 | 0.18 | 0.03 | 88 | 1010.8 |
| 20260509131317 | 19 | 185 | 0.0 | 0.0 | 0.00 | 0.18 | 0.03 | 90 | 1010.9 |
| 20260509130749 | 18 | 184 | 0.0 | 0.0 | 0.00 | 0.18 | 0.03 | 92 | 1010.9 |
| 20260509130247 | 18 | 184 | 0.0 | 0.0 | 0.00 | 0.18 | 0.03 | 92 | 1010.9 |
| 20260509125719 | 17 | 184 | 0.0 | 0.0 | 0.00 | 0.18 | 0.03 | 94 | 1010.8 |
| 20260509125151 | 17 | 199 | 0.0 | 0.0 | 0.00 | 0.18 | 0.03 | 96 | 1010.8 |
| 20260509125143 | 17 | 199 | 0.0 | 0.0 | 0.00 | 0.18 | 0.03 | 96 | 1010.8 |
| 20260509124139 | 17 | 199 | 0.0 | 0.0 | 0.00 | 0.18 | 0.03 | 95 | 1010.9 |
| 20260509123612 | 16 | 199 | 0.0 | 0.0 | 0.00 | 0.18 | 0.03 | 95 | 1010.8 |
| 20260509123053 | 16 | 199 | 0.0 | 0.0 | 0.00 | 0.18 | 0.03 | 96 | 1010.8 |
| 20260509122555 | 15 | 199 | 0.0 | 0.0 | 0.00 | 0.18 | 0.03 | 97 | 1010.7 |
| 20260509122050 | 15 | 199 | 0.0 | 0.0 | 0.00 | 0.18 | 0.03 | 97 | 1010.6 |
| 20260509121553 | 14 | 199 | 0.0 | 0.0 | 0.00 | 0.18 | 0.03 | 97 | 1010.5 |
| 20260509121034 | 13 | 200 | 0.0 | 0.0 | 0.00 | 0.18 | 0.03 | 97 | 1010.4 |
| 20260509120531 | 12 | 199 | 0.0 | 0.0 | 0.00 | 0.18 | 0.03 | 97 | 1010.3 |
| 20260509120451 | 11 | 200 | 0.0 | 0.0 | 0.00 | 0.18 | 0.03 | 97 | 1010.4 |
| 20260509115439 | 11 | 200 | 0.0 | 0.0 | 0.00 | 0.18 | 0.03 | 96 | 1010.3 |
| 20260509114914 | 10 | 200 | 0.0 | 0.0 | 0.00 | 0.18 | 0.03 | 96 | 1010.3 |
| 20260509114414 | 10 | 200 | 0.0 | 0.0 | 0.00 | 0.18 | 0.03 | 96 | 1010.3 |
| 20260509113912 | 9 | 200 | 0.0 | 0.0 | 0.00 | 0.18 | 0.03 | 96 | 1010.3 |
| 20260509113904 | 9 | 200 | 0.0 | 0.0 | 0.00 | 0.18 | 0.03 | 96 | 1010.3 |
| 20260509112843 | 9 | 200 | 0.0 | 0.0 | 0.00 | 0.18 | 0.03 | 95 | 1010.2 |
| 20260509112318 | 9 | 200 | 0.0 | 0.0 | 0.00 | 0.18 | 0.03 | 95 | 1010.2 |
| 20260509111821 | 9 | 200 | 0.0 | 0.0 | 0.00 | 0.18 | 0.03 | 95 | 1010.1 |
| 20260509111243 | 9 | 200 | 0.0 | 0.0 | 0.00 | 0.18 | 0.03 | 95 | 1010.0 |
| 20260509110719 | 9 | 200 | 0.0 | 0.0 | 0.00 | 0.18 | 0.03 | 95 | 1010.2 |
| 20260509110155 | 9 | 200 | 0.0 | 0.0 | 0.00 | 0.18 | 0.03 | 96 | 1010.1 |
| 20260509105633 | 9 | 200 | 0.0 | 0.0 | 0.00 | 0.18 | 0.03 | 96 | 1010.1 |
| 20260509105619 | 9 | 200 | 0.0 | 0.0 | 0.00 | 0.18 | 0.03 | 95 | 1009.9 |
| 20260509104602 | 9 | 200 | 0.0 | 0.0 | 0.00 | 0.18 | 0.03 | 95 | 1009.8 |
| 20260509104037 | 9 | 200 | 0.0 | 0.0 | 0.00 | 0.18 | 0.03 | 95 | 1009.9 |
| 20260509103507 | 9 | 200 | 0.0 | 0.0 | 0.00 | 0.18 | 0.03 | 95 | 1009.8 |
| 20260509103433 | 9 | 200 | 0.0 | 0.0 | 0.00 | 0.18 | 0.03 | 94 | 1009.8 |
| 20260509102437 | 10 | 200 | 0.0 | 0.0 | 0.00 | 0.18 | 0.03 | 94 | 1009.9 |
| 20260509102416 | 10 | 200 | 0.0 | 0.0 | 0.00 | 0.18 | 0.03 | 95 | 1009.9 |
| 20260509101843 | 10 | 200 | 0.0 | 0.0 | 0.00 | 0.18 | 0.03 | 94 | 1009.8 |
| 20260509100905 | 10 | 200 | 0.0 | 0.0 | 0.00 | 0.18 | 0.03 | 95 | 1009.8 |
| 20260509100825 | 10 | 200 | 0.0 | 0.0 | 0.00 | 0.18 | 0.03 | 95 | 1009.7 |
| 20260509095813 | 10 | 200 | 0.0 | 0.0 | 0.03 | 0.18 | 0.03 | 94 | 1009.7 |
| 20260509095248 | 10 | 200 | 0.0 | 0.0 | 0.03 | 0.18 | 0.03 | 94 | 1009.8 |
| 20260509094747 | 10 | 200 | 0.0 | 0.0 | 0.03 | 0.18 | 0.03 | 94 | 1009.9 |
| 20260509094238 | 10 | 200 | 0.0 | 0.0 | 0.03 | 0.18 | 0.03 | 94 | 1009.9 |
| 20260509093735 | 10 | 200 | 0.0 | 0.0 | 0.03 | 0.18 | 0.03 | 94 | 1009.9 |
| 20260509093232 | 10 | 200 | 0.0 | 0.0 | 0.03 | 0.18 | 0.03 | 94 | 1009.9 |
| 20260509092726 | 10 | 200 | 0.0 | 0.0 | 0.03 | 0.18 | 0.03 | 94 | 1010.0 |
| 20260509092222 | 10 | 200 | 0.0 | 0.0 | 0.03 | 0.18 | 0.03 | 94 | 1010.0 |
| 20260509092140 | 10 | 200 | 0.0 | 0.0 | 0.03 | 0.18 | 0.03 | 94 | 1010.0 |
| 20260509091152 | 10 | 200 | 0.0 | 0.0 | 0.03 | 0.18 | 0.03 | 94 | 1010.1 |
| 20260509090650 | 10 | 200 | 0.0 | 0.0 | 0.03 | 0.18 | 0.03 | 94 | 1010.2 |
| 20260509090151 | 10 | 200 | 0.0 | 0.0 | 0.03 | 0.18 | 0.03 | 94 | 1010.2 |
| 20260509085626 | 10 | 200 | 0.0 | 0.0 | 0.00 | 0.15 | 0.00 | 94 | 1010.2 |
| 20260509085119 | 10 | 200 | 0.0 | 0.0 | 0.00 | 0.15 | 0.00 | 94 | 1010.2 |
| 20260509084615 | 10 | 200 | 0.0 | 0.0 | 0.00 | 0.15 | 0.00 | 94 | 1010.2 |
| 20260509084551 | 10 | 200 | 0.0 | 0.0 | 0.00 | 0.15 | 0.00 | 94 | 1010.2 |
| 20260509083604 | 11 | 200 | 0.0 | 0.0 | 0.00 | 0.15 | 0.00 | 94 | 1010.2 |
| 20260509083101 | 11 | 200 | 0.0 | 0.0 | 0.00 | 0.15 | 0.00 | 94 | 1010.2 |
| 20260509082534 | 11 | 200 | 0.0 | 0.0 | 0.00 | 0.15 | 0.00 | 94 | 1010.2 |
| 20260509082007 | 11 | 200 | 0.0 | 0.0 | 0.00 | 0.15 | 0.00 | 94 | 1010.3 |
| 20260509081928 | 11 | 200 | 0.0 | 0.0 | 0.00 | 0.15 | 0.00 | 94 | 1010.4 |
| 20260509080911 | 11 | 200 | 0.0 | 0.0 | 0.00 | 0.15 | 0.00 | 94 | 1010.4 |
| 20260509080829 | 11 | 200 | 0.0 | 0.0 | 0.00 | 0.15 | 0.00 | 93 | 1010.5 |
| 20260509075828 | 11 | 200 | 0.0 | 0.0 | 0.00 | 0.15 | 0.00 | 94 | 1010.5 |
| 20260509075331 | 11 | 200 | 0.0 | 0.0 | 0.00 | 0.15 | 0.00 | 93 | 1010.4 |
| 20260509074817 | 11 | 200 | 0.0 | 0.0 | 0.00 | 0.15 | 0.00 | 93 | 1010.4 |
| 20260509074318 | 11 | 200 | 0.0 | 0.0 | 0.00 | 0.15 | 0.00 | 93 | 1010.4 |
| 20260509074241 | 11 | 200 | 0.0 | 0.0 | 0.00 | 0.15 | 0.00 | 93 | 1010.4 |
| 20260509073249 | 11 | 200 | 0.0 | 0.0 | 0.00 | 0.15 | 0.00 | 93 | 1010.4 |
| 20260509072738 | 11 | 200 | 0.0 | 0.0 | 0.00 | 0.15 | 0.00 | 93 | 1010.4 |
| 20260509072719 | 11 | 200 | 0.0 | 0.0 | 0.00 | 0.15 | 0.00 | 93 | 1010.3 |